N70PPS KEYW-KMIA

Flight info

Callsign N70PPS
Flight time 0h 25m
Altitude 21000
Route BUFTT1 BUFTT PYREX SNDBR3
Aircraft C700/M-SBDGHM1RWXY/LB2

Departure

Time 2026-04-30 19:41
Airport Key West International Airport (KEYW)

Arrival

Time 2026-04-30 20:06
Airport Miami International Airport (KMIA)
Time Latitude Longitude Altitude Speed Heading
2026-04-30 19:30 24.55473 -81.75716 10 ft 0 kts
2026-04-30 19:38 24.55488 -81.75720 10 ft 6 kts 340°
2026-04-30 19:38 24.55529 -81.75761 10 ft 11 kts 277°
2026-04-30 19:38 24.55528 -81.75864 8 ft 16 kts 269°
2026-04-30 19:38 24.55527 -81.75989 5 ft 17 kts 269°
2026-04-30 19:39 24.55525 -81.76140 3 ft 22 kts 269°
2026-04-30 19:39 24.55523 -81.76306 3 ft 19 kts 269°
2026-04-30 19:39 24.55522 -81.76439 2 ft 15 kts 269°
2026-04-30 19:39 24.55521 -81.76571 2 ft 19 kts 269°
2026-04-30 19:40 24.55526 -81.76635 3 ft 1 kts 297°
2026-04-30 19:40 24.55527 -81.76635 3 ft 0 kts 297°
2026-04-30 19:40 24.55550 -81.76653 4 ft 8 kts 341°
2026-04-30 19:41 24.55603 -81.76639 4 ft 8 kts 71°
2026-04-30 19:41 24.55608 -81.76496 3 ft 57 kts 89°
2026-04-30 19:41 24.55616 -81.75645 65 ft 157 kts 90°
2026-04-30 19:41 24.55647 -81.74280 966 ft 192 kts 88°
2026-04-30 19:42 24.56074 -81.72817 2204 ft 217 kts 51°
2026-04-30 19:42 24.57442 -81.72010 3601 ft 241 kts
2026-04-30 19:42 24.59188 -81.72153 4982 ft 263 kts 349°
2026-04-30 19:42 24.61023 -81.72386 6706 ft 269 kts 356°
2026-04-30 19:43 24.62919 -81.72318 8367 ft 275 kts
2026-04-30 19:43 24.64848 -81.72146 10055 ft 281 kts
2026-04-30 19:43 24.66820 -81.72034 11609 ft 286 kts 360°
2026-04-30 19:44 24.70876 -81.71567 14441 ft 312 kts 15°
2026-04-30 19:44 24.72928 -81.70510 15377 ft 337 kts 30°
2026-04-30 19:44 24.74759 -81.68851 16825 ft 346 kts 43°
2026-04-30 19:44 24.76403 -81.66873 18182 ft 355 kts 45°
2026-04-30 19:45 24.78109 -81.64817 18937 ft 374 kts 43°
2026-04-30 19:45 24.79897 -81.62795 18974 ft 368 kts 42°
2026-04-30 19:45 24.81672 -81.60801 18977 ft 363 kts 43°
2026-04-30 19:45 24.83498 -81.58883 18973 ft 363 kts 34°
2026-04-30 19:46 24.85610 -81.57380 18973 ft 361 kts 27°
2026-04-30 19:46 24.87758 -81.55941 18975 ft 361 kts 29°
2026-04-30 19:46 24.89866 -81.54427 18973 ft 361 kts 30°
2026-04-30 19:46 24.91978 -81.52919 18971 ft 361 kts 28°
2026-04-30 19:47 24.94115 -81.51477 18972 ft 360 kts 27°
2026-04-30 19:47 24.95545 -81.50539 18973 ft 360 kts 27°
2026-04-30 19:47 24.98375 -81.48632 18975 ft 360 kts 28°
2026-04-30 19:47 25.00489 -81.47146 18972 ft 360 kts 29°
2026-04-30 19:48 25.02608 -81.45665 18973 ft 360 kts 28°
2026-04-30 19:48 25.04741 -81.44216 18975 ft 360 kts 28°
2026-04-30 19:48 25.06880 -81.42780 18974 ft 360 kts 28°
2026-04-30 19:48 25.09008 -81.41323 18972 ft 360 kts 28°
2026-04-30 19:49 25.11126 -81.39846 18972 ft 360 kts 29°
2026-04-30 19:49 25.15376 -81.36924 18975 ft 360 kts 28°
2026-04-30 19:49 25.17512 -81.35474 18973 ft 360 kts 28°
2026-04-30 19:50 25.19587 -81.33985 18972 ft 362 kts 33°
2026-04-30 19:50 25.21420 -81.32062 18965 ft 366 kts 44°
2026-04-30 19:50 25.22955 -81.29799 18962 ft 371 kts 56°
2026-04-30 19:50 25.24062 -81.27217 18959 ft 374 kts 65°
2026-04-30 19:51 25.24986 -81.24526 18959 ft 374 kts 66°
2026-04-30 19:51 25.25934 -81.21850 18938 ft 374 kts 65°
2026-04-30 19:51 25.26943 -81.19162 18495 ft 381 kts 64°
2026-04-30 19:51 25.27944 -81.16468 17937 ft 375 kts 65°
2026-04-30 19:52 25.28876 -81.13812 17407 ft 366 kts 66°
2026-04-30 19:52 25.29770 -81.11204 16896 ft 360 kts 66°
2026-04-30 19:52 25.30684 -81.08629 16382 ft 359 kts 65°
2026-04-30 19:52 25.31620 -81.06078 15879 ft 357 kts 65°
2026-04-30 19:53 25.32528 -81.03572 15381 ft 345 kts 66°
2026-04-30 19:53 25.33380 -81.01141 14905 ft 334 kts 66°
2026-04-30 19:53 25.34193 -80.98807 14452 ft 325 kts 66°
2026-04-30 19:53 25.35014 -80.96502 13996 ft 320 kts 66°
2026-04-30 19:54 25.35840 -80.94222 13524 ft 319 kts 66°
2026-04-30 19:54 25.36656 -80.91942 13062 ft 318 kts 66°
2026-04-30 19:54 25.37463 -80.89665 12605 ft 317 kts 65°
2026-04-30 19:54 25.38597 -80.87604 12157 ft 312 kts 49°
2026-04-30 19:55 25.40087 -80.85880 11782 ft 306 kts 37°
2026-04-30 19:55 25.41235 -80.84999 11572 ft 301 kts 27°
2026-04-30 19:55 25.43739 -80.83722 11139 ft 299 kts 19°
2026-04-30 19:55 25.45047 -80.83148 10967 ft 297 kts 18°
2026-04-30 19:56 25.47590 -80.82152 10952 ft 294 kts 15°
2026-04-30 19:56 25.48910 -80.81663 10951 ft 298 kts 15°
2026-04-30 19:56 25.50887 -80.80939 10952 ft 300 kts 15°
2026-04-30 19:56 25.52836 -80.80206 10955 ft 298 kts 16°
2026-04-30 19:57 25.54791 -80.79453 10955 ft 297 kts 16°
2026-04-30 19:57 25.56746 -80.78704 10954 ft 296 kts 16°
2026-04-30 19:57 25.58684 -80.77976 10896 ft 287 kts 15°
2026-04-30 19:57 25.60518 -80.77275 10594 ft 276 kts 18°
2026-04-30 19:58 25.62161 -80.76128 10071 ft 281 kts 36°
2026-04-30 19:58 25.63607 -80.74680 9685 ft 277 kts 40°
2026-04-30 19:58 25.65016 -80.73261 9335 ft 270 kts 37°
2026-04-30 19:58 25.66499 -80.71997 8924 ft 270 kts 33°
2026-04-30 19:59 25.68027 -80.70770 8451 ft 272 kts 34°
2026-04-30 19:59 25.69522 -80.69488 7972 ft 272 kts 37°
2026-04-30 19:59 25.72447 -80.66852 7013 ft 270 kts 37°
2026-04-30 20:00 25.73911 -80.65585 6538 ft 271 kts 36°
2026-04-30 20:00 25.75410 -80.64306 6044 ft 272 kts 37°
2026-04-30 20:00 25.76895 -80.63004 5557 ft 272 kts 39°
2026-04-30 20:00 25.78109 -80.61402 5065 ft 272 kts 59°
2026-04-30 20:01 25.79133 -80.57607 4399 ft 236 kts 89°
2026-04-30 20:01 25.79167 -80.55831 4122 ft 226 kts 89°
2026-04-30 20:01 25.79240 -80.54114 3881 ft 220 kts 86°
2026-04-30 20:02 25.79432 -80.50770 3349 ft 214 kts 88°
2026-04-30 20:02 25.79496 -80.49134 3093 ft 210 kts 88°
2026-04-30 20:03 25.79626 -80.45986 2611 ft 201 kts 89°
2026-04-30 20:03 25.79537 -80.44465 2344 ft 196 kts 112°
2026-04-30 20:03 25.79146 -80.43099 2361 ft 181 kts 91°
2026-04-30 20:03 25.79452 -80.41704 2380 ft 194 kts 73°
2026-04-30 20:04 25.79828 -80.40310 2281 ft 180 kts 77°
2026-04-30 20:04 25.80064 -80.38973 2008 ft 176 kts 85°
2026-04-30 20:04 25.80161 -80.37644 1761 ft 167 kts 91°
2026-04-30 20:05 25.80162 -80.35176 1285 ft 153 kts 94°
2026-04-30 20:05 25.80158 -80.34146 1113 ft 122 kts 94°
2026-04-30 20:05 25.80201 -80.32370 594 ft 110 kts 94°
2026-04-30 20:06 25.80228 -80.31534 413 ft 109 kts 91°
2026-04-30 20:06 25.80264 -80.30670 226 ft 113 kts 90°
2026-04-30 20:06 25.80301 -80.29839 27 ft 100 kts 87°
2026-04-30 20:06 25.80323 -80.29284 12 ft 24 kts 87°
2026-04-30 20:07 25.80349 -80.29155 12 ft 15 kts 41°
2026-04-30 20:07 25.80437 -80.29195 13 ft 18 kts 286°
2026-04-30 20:07 25.80441 -80.29241 13 ft 7 kts 264°
2026-04-30 20:08 25.80475 -80.29301 13 ft 12 kts 332°
2026-04-30 20:08 25.80567 -80.29314 12 ft 12 kts 22°
2026-04-30 20:08 25.80572 -80.29225 11 ft 6 kts 156°
2026-04-30 20:08 25.80570 -80.29225 12 ft 0 kts 165°